Погода в Каменке

Россия / Ивановская область     57°23′20″N   41°47′50″E
темп.,
°C
ветер,
м/с
пор.,
м/с
влажн.,
%
обл.,
%
осадки,
мм/ч
давл.,
гПа
погр.,
м
6 марта, сб
сб600:00−15зсз23930 0.0 101227
03:00−14з379537 0.1 1014205
06:00−15з269786 0.1 1013129
09:00−14зсз249483 0.1 1014159
12:00−9зсз348623 0.0 1014460
15:00−9з358651 0.1 1013774
18:00−12з2393100 0.1 101334
21:00−15з239450 0.1 101320
7 марта, вс
вс700:00−16ююз239632 0.0 101135
03:00−16ю389616 0.0 1008157
06:00−13ю5129376 0.0 1004336
09:00−10ю6139388 0.3 1000713
12:00−7ю61192100 0.9 995830
15:00−6ю61193100 2.2 991835
18:00−5юз61195100 2.4 989824
21:00−7з41187100 3.3 989801
8 марта, пн
пн800:00−12зюз3128834 0.0 989297
03:00−10зюз4119462 0.2 990564
06:00−10зюз3796100 0.6 990384
09:00−10зсз359496 0.8 992318
12:00−7ссз3587100 0.1 995725
15:00−8с5786100 0.2 998833
18:00−11ссз4991100 0.1 1002574
21:00−14ссз3109398 0.1 1006384
9 марта, вт
вт900:00−17ссз389685 0.0 1008203
03:00−21ссз379748 0.0 1011155
06:00−24ссз37970 0.0 1013138
09:00−22ссз35942 0.0 1014253
12:00−17сз348962 0.0 1015431
15:00−16сз468881 0.0 1016600
18:00−20ссз2596100 0.0 1017108
21:00−23ссз259899 0.1 1020120
10 марта, ср
ср1000:00−26ссз239839 0.0 102162
03:00−28с239719 0.0 102264
06:00−30с24970 0.0 102473
09:00−26с24940 0.0 1025216
12:00−19ссз24830 0.0 1026412
15:00−16зсз35840 0.0 1025492
18:00−19з37930 0.0 1025150
21:00−20зсз499335 0.0 1026228